Starlink 2507

operational
NORAD ID: 48316 Int'l Des: 2021-036 Owner: SPXS Country: US Constellation: starlink
LEOCIRCULARSTARLINK_TYPE

Über Starlink 2507

Beschreibung wird geladen...

Live-Position

3D-Globus wird geladen...

Nächste Überflüge

Höhenverlauf

Altitude vs Time

uPlot chart will show altitude changes over time

Zweizeiliger Elementsatz

1 48316U 21036AS 26061.43950693 .00002124 00000-0 16148-3 0 9990
2 48316 53.0543 124.1664 0001327 92.9644 267.1497 15.06395526267075
Epoch: 2. März 2026 • Age: 39 hours

Aktueller Status

Höhe 565.8 km
Geschwindigkeit 7.58 km/s
Subsatellitenpunkt -51.04°S, 26.71°E
Startdatum 29. Apr. 2021
Alter 4.8 years
Typ internet

Technische Details

Klassifizierung Payload
Masse 260.00 kg
Trockenmasse 248.00 kg
Gesamtmasse 260.00 kg
Länge 0.20 m
Durchmesser 2.80 m
Spannweite 9.00 m
Form Box + pan
Hersteller SPXS
Bus-Typ Starlink
Phasenstatus In Orbit
Besitzer/Staat SPXS/US

Große Konstellationen

Loading constellations...